DW8749 Weather Reports


Display with metric or nautical units.
time (UTC)temp
F
wind
direction
speed
MPH
gust
MPH
rain 1hr
in
rain 24hr
in
rain mn
in
humidity
%
barometer
mb
20260901095009 75 198 1.0 3.0 0.00 0.00 0.00 56 1015.6
20260901094515 75 229 1.0 3.0 0.00 0.00 0.00 56 1015.7
20260901094012 76 276 1.0 2.0 0.00 0.00 0.00 56 1015.7
20260901093513 76 276 1.0 3.0 0.00 0.00 0.00 55 1015.7
20260901093024 76 242 1.0 4.0 0.00 0.00 0.00 55 1015.6
20260901092516 76 203 2.0 4.0 0.00 0.00 0.00 55 1015.5
20260901092017 77 194 2.0 5.0 0.00 0.00 0.00 54 1015.5
20260901091530 77 190 2.0 6.0 0.00 0.00 0.00 54 1015.5
20260901091003 77 209 1.0 6.0 0.00 0.00 0.00 53 1015.4
20260901090507 77 199 3.0 7.0 0.00 0.00 0.00 53 1015.3
20260901090015 77 202 3.0 7.0 0.00 0.00 0.00 53 1015.2
20260901085507 78 207 3.0 7.0 0.00 0.00 0.00 53 1015.2
20260901085015 78 194 4.0 7.0 0.00 0.00 0.00 52 1015.3
20260901084518 78 210 4.0 7.0 0.00 0.00 0.00 52 1015.2
20260901084012 78 195 3.0 6.0 0.00 0.00 0.00 52 1015.2
20260901083512 79 205 4.0 6.0 0.00 0.00 0.00 51 1015.2
20260901083029 79 192 3.0 8.0 0.00 0.00 0.00 51 1015.2
20260901082513 79 209 3.0 13.0 0.00 0.00 0.00 50 1015.1
20260901082017 79 360 4.0 13.0 0.00 0.00 0.00 50 1015.0
20260901081508 79 195 5.0 10.0 0.00 0.00 0.00 50 1015.0
20260901081008 80 201 5.0 10.0 0.00 0.00 0.00 50 1014.9
20260901080509 80 209 5.0 10.0 0.00 0.00 0.00 49 1014.9
20260901080017 80 205 4.0 13.0 0.00 0.00 0.00 49 1014.8
20260901075511 80 190 6.0 13.0 0.00 0.00 0.00 49 1014.7
20260901075012 80 177 4.0 12.0 0.00 0.00 0.00 49 1014.6
20260901074523 81 188 7.0 13.0 0.00 0.00 0.00 48 1014.6
20260901074016 81 194 6.0 16.0 0.00 0.00 0.00 48 1014.5
20260901073514 81 190 7.0 16.0 0.00 0.00 0.00 48 1014.6
20260901073033 81 198 6.0 16.0 0.00 0.00 0.00 48 1014.6
20260901072516 82 192 7.0 16.0 0.00 0.00 0.00 47 1014.5
20260901072018 82 227 6.0 15.0 0.00 0.00 0.00 47 1014.5
20260901071511 82 193 5.0 13.0 0.00 0.00 0.00 47 1014.5
20260901071007 82 200 7.0 13.0 0.00 0.00 0.00 47 1014.4
20260901070509 82 360 5.0 13.0 0.00 0.00 0.00 47 1014.4
20260901070018 82 173 7.0 16.0 0.00 0.00 0.00 46 1014.5
20260901065514 83 144 8.0 17.0 0.00 0.00 0.00 46 1014.7
20260901065012 83 204 8.0 17.0 0.00 0.00 0.00 46 1014.7
20260901064528 83 219 6.0 14.0 0.00 0.00 0.00 46 1014.7
20260901064018 83 207 5.0 12.0 0.00 0.00 0.00 46 1014.6
20260901063522 83 213 7.0 13.0 0.00 0.00 0.00 46 1014.5
20260901063036 82 183 7.0 13.0 0.00 0.00 0.00 46 1014.5
20260901062520 82 178 6.0 11.0 0.00 0.00 0.00 47 1014.4
20260901062005 83 185 6.0 11.0 0.00 0.00 0.00 47 1014.4
20260901061518 83 171 6.0 11.0 0.00 0.00 0.00 47 1014.4
20260901061011 83 164 4.0 12.0 0.00 0.00 0.00 47 1014.4
20260901060511 83 205 7.0 12.0 0.00 0.00 0.00 46 1014.4
20260901060023 83 163 5.0 11.0 0.00 0.00 0.00 46 1014.4
20260901055514 83 360 4.0 12.0 0.00 0.00 0.00 46 1014.4
20260901055014 83 171 5.0 12.0 0.00 0.00 0.00 46 1014.4
20260901054527 84 170 7.0 12.0 0.00 0.00 0.00 46 1014.2
20260901054019 84 213 6.0 13.0 0.00 0.00 0.00 45 1014.2
20260901053520 84 209 6.0 13.0 0.00 0.00 0.00 45 1014.2
20260901053034 84 360 5.0 10.0 0.00 0.00 0.00 45 1014.2
20260901052515 84 202 6.0 11.0 0.00 0.00 0.00 45 1014.2
20260901052011 84 159 6.0 12.0 0.00 0.00 0.00 45 1014.2
20260901051522 85 180 6.0 12.0 0.00 0.00 0.00 44 1014.2
20260901051015 85 160 5.0 11.0 0.00 0.00 0.00 44 1014.2
20260901050513 85 198 6.0 11.0 0.00 0.00 0.00 44 1014.2
20260901050026 85 173 7.0 12.0 0.00 0.00 0.00 44 1014.2
20260901045517 85 159 5.0 12.0 0.00 0.00 0.00 43 1014.2
20260901045023 86 360 6.0 13.0 0.00 0.00 0.00 43 1014.2
20260901044530 86 205 6.0 13.0 0.00 0.00 0.00 43 1014.3
20260901044016 86 169 6.0 14.0 0.00 0.00 0.00 43 1014.4
20260901043515 86 171 7.0 14.0 0.00 0.00 0.00 43 1014.3
20260901043037 86 360 8.0 14.0 0.00 0.00 0.00 42 1014.3
20260901042507 86 125 6.0 12.0 0.00 0.00 0.00 42 1014.3
20260901042011 87 360 6.0 13.0 0.00 0.00 0.00 42 1014.3
20260901041523 87 151 6.0 14.0 0.00 0.00 0.00 42 1014.3
20260901041012 87 197 8.0 14.0 0.00 0.00 0.00 41 1014.3
20260901040518 87 360 7.0 14.0 0.00 0.00 0.00 41 1014.2
20260901040031 87 161 6.0 15.0 0.00 0.00 0.00 41 1014.2
20260901035518 87 142 7.0 15.0 0.00 0.00 0.00 41 1014.1
20260901035015 87 360 7.0 13.0 0.00 0.00 0.00 41 1014.1
20260901034534 87 360 6.0 16.0 0.00 0.00 0.00 41 1014.0
20260901034019 87 360 7.0 16.0 0.00 0.00 0.00 41 1014.0
20260901033518 87 194 6.0 11.0 0.00 0.00 0.00 41 1014.0
20260901033020 88 153 6.0 12.0 0.00 0.00 0.00 41 1014.1
20260901032510 88 129 5.0 12.0 0.00 0.00 0.00 40 1014.1
20260901032014 88 121 7.0 12.0 0.00 0.00 0.00 40 1014.0
20260901031525 88 163 7.0 13.0 0.00 0.00 0.00 40 1013.9
20260901031012 88 159 7.0 13.0 0.00 0.00 0.00 40 1014.0
20260901030516 88 161 8.0 14.0 0.00 0.00 0.00 39 1013.9
20260901030031 88 137 7.0 14.0 0.00 0.00 0.00 40 1013.7
20260901025519 89 165 5.0 14.0 0.00 0.00 0.00 39 1013.6
20260901025016 89 360 7.0 13.0 0.00 0.00 0.00 39 1013.5
20260901024512 89 138 7.0 13.0 0.00 0.00 0.00 39 1013.4
20260901024012 89 199 6.0 14.0 0.00 0.00 0.00 39 1013.2
20260901023511 89 360 8.0 14.0 0.00 0.00 0.00 39 1013.1
20260901023028 89 120 8.0 13.0 0.00 0.00 0.00 39 1012.9
20260901022518 90 136 5.0 13.0 0.00 0.00 0.00 39 1012.8
20260901022014 90 131 6.0 12.0 0.00 0.00 0.00 39 1012.7
20260901021502 90 135 7.0 14.0 0.00 0.00 0.00 39 1012.6
20260901021002 90 123 8.0 16.0 0.00 0.00 0.00 38 1012.5
20260901020503 90 130 7.0 16.0 0.00 0.00 0.00 38 1012.4
20260901020006 90 130 5.0 11.0 0.00 0.00 0.00 38 1012.3
20260901015508 90 148 6.0 11.0 0.00 0.00 0.00 37 1012.2
20260901015008 91 128 6.0 9.0 0.00 0.00 0.00 37 1012.1
20260901014514 91 360 5.0 12.0 0.00 0.00 0.00 37 1012.0
20260901014008 91 127 5.0 12.0 0.00 0.00 0.00 36 1012.1
20260901013512 92 137 6.0 12.0 0.00 0.00 0.00 35 1012.0
20260901013024 92 118 4.0 11.0 0.00 0.00 0.00 35 1012.0
20260901012515 92 142 5.0 11.0 0.00 0.00 0.00 34 1012.0
20260901012006 93 132 4.0 11.0 0.00 0.00 0.00 34 1012.0
20260901011506 94 119 5.0 11.0 0.00 0.00 0.00 33 1011.9
20260901011004 94 360 4.0 10.0 0.00 0.00 0.00 32 1011.9
20260901010509 95 111 4.0 11.0 0.00 0.00 0.00 31 1011.9
20260901010010 95 128 6.0 11.0 0.00 0.00 0.00 31 1011.9
20260901005511 95 360 7.0 11.0 0.00 0.00 0.00 31 1012.0
20260901005009 96 142 7.0 11.0 0.00 0.00 0.00 30 1011.9
20260901004519 96 360 6.0 12.0 0.00 0.00 0.00 30 1011.8
20260901004013 96 360 8.0 14.0 0.00 0.00 0.00 30 1011.8
20260901003515 97 145 7.0 14.0 0.00 0.00 0.00 30 1011.8
20260901003026 97 360 7.0 12.0 0.00 0.00 0.00 29 1011.8
20260901002516 97 137 6.0 14.0 0.00 0.00 0.00 29 1011.8
20260901002003 98 170 7.0 14.0 0.00 0.00 0.00 29 1011.8
20260901001504 98 143 7.0 12.0 0.00 0.00 0.00 29 1011.7
20260901001006 98 117 6.0 12.0 0.00 0.00 0.00 28 1011.8
20260901000507 98 146 6.0 12.0 0.00 0.00 0.00 28 1011.9
20260901000011 99 136 7.0 16.0 0.00 0.00 0.00 28 1011.8
20260831235511 99 157 7.0 16.0 0.00 0.00 0.00 28 1011.8
20260831235011 99 139 7.0 16.0 0.00 0.00 0.00 27 1011.8
20260831234524 99 127 7.0 16.0 0.00 0.00 0.00 26 1011.7
20260831234014 99 133 7.0 16.0 0.00 0.00 0.00 26 1011.8
20260831233517 100 142 9.0 18.0 0.00 0.00 0.00 25 1011.8
20260831233029 100 137 10.0 18.0 0.00 0.00 0.00 25 1011.7
20260831232502 100 155 6.0 11.0 0.00 0.00 0.00 26 1011.8
20260831232007 100 173 4.0 16.0 0.00 0.00 0.00 26 1011.8
20260831231510 100 360 6.0 16.0 0.00 0.00 0.00 25 1011.8
20260831231008 100 208 5.0 15.0 0.00 0.00 0.00 26 1011.8
20260831230507 101 122 9.0 15.0 0.00 0.00 0.00 25 1011.8
20260831230027 101 163 8.0 12.0 0.00 0.00 0.00 25 1011.9
20260831225510 102 196 7.0 12.0 0.00 0.00 0.00 25 1012.0
20260831225012 102 173 7.0 14.0 0.00 0.00 0.00 24 1011.9
20260831224526 101 193 7.0 14.0 0.00 0.00 0.00 25 1011.9
20260831224016 102 360 6.0 14.0 0.00 0.00 0.00 25 1011.9
20260831223517 102 207 6.0 18.0 0.00 0.00 0.00 24 1011.9
20260831223006 102 184 9.0 18.0 0.00 0.00 0.00 24 1011.9
20260831222506 102 153 6.0 14.0 0.00 0.00 0.00 25 1011.8
20260831222005 102 186 9.0 13.0 0.00 0.00 0.00 25 1012.0
20260831221515 102 133 6.0 13.0 0.00 0.00 0.00 25 1012.0
20260831221009 102 190 4.0 12.0 0.00 0.00 0.00 26 1012.0
20260831220510 102 360 5.0 13.0 0.00 0.00 0.00 25 1012.1
20260831220020 102 244 6.0 15.0 0.00 0.00 0.00 25 1012.1
20260831215515 103 180 6.0 16.0 0.00 0.00 0.00 25 1012.0
20260831215014 103 194 7.0 16.0 0.00 0.00 0.00 25 1012.2
20260831214528 102 203 6.0 14.0 0.00 0.00 0.00 25 1012.1
20260831214017 102 147 9.0 15.0 0.00 0.00 0.00 25 1012.2
20260831213521 102 360 8.0 16.0 0.00 0.00 0.00 25 1012.3
20260831213007 102 169 6.0 16.0 0.00 0.00 0.00 24 1012.4
20260831212508 103 168 9.0 14.0 0.00 0.00 0.00 24 1012.3
20260831212009 103 144 5.0 14.0 0.00 0.00 0.00 25 1012.4
20260831211516 102 198 7.0 14.0 0.00 0.00 0.00 27 1012.5
20260831211012 103 360 8.0 16.0 0.00 0.00 0.00 25 1012.6
20260831210511 103 360 8.0 16.0 0.00 0.00 0.00 26 1012.6
20260831210026 102 161 5.0 15.0 0.00 0.00 0.00 26 1012.6
20260831205516 103 165 6.0 15.0 0.00 0.00 0.00 26 1012.7
20260831205013 102 183 7.0 15.0 0.00 0.00 0.00 26 1012.7
20260831204530 103 190 4.0 15.0 0.00 0.00 0.00 25 1012.8
20260831204021 103 155 8.0 15.0 0.00 0.00 0.00 26 1012.9
20260831203507 103 168 5.0 16.0 0.00 0.00 0.00 26 1013.0
20260831203012 102 182 5.0 16.0 0.00 0.00 0.00 27 1013.0
20260831202508 102 201 5.0 15.0 0.00 0.00 0.00 27 1013.1
20260831202008 102 138 9.0 15.0 0.00 0.00 0.00 27 1013.2
20260831201520 102 360 7.0 16.0 0.00 0.00 0.00 27 1013.3
20260831201015 102 176 10.0 16.0 0.00 0.00 0.00 26 1013.4
20260831200513 102 156 7.0 19.0 0.00 0.00 0.00 28 1013.4
20260831200032 102 173 8.0 18.0 0.00 0.00 0.00 28 1013.5
20260831195515 102 160 5.0 14.0 0.00 0.00 0.00 27 1013.4
20260831195015 102 186 8.0 19.0 0.00 0.00 0.00 27 1013.3
20260831194601 102 186 6.0 19.0 0.00 0.00 0.00 28 1013.4
20260831194016 102 192 7.0 17.0 0.00 0.00 0.00 29 1013.4
20260831193511 101 224 8.0 17.0 0.00 0.00 0.00 27 1013.5
20260831193014 101 202 9.0 16.0 0.00 0.00 0.00 28 1013.5
20260831192509 101 360 9.0 16.0 0.00 0.00 0.00 29 1013.6
20260831192010 100 226 7.0 15.0 0.00 0.00 0.00 28 1013.6
20260831191522 100 215 6.0 17.0 0.00 0.00 0.00 30 1013.7
20260831191017 100 132 8.0 17.0 0.00 0.00 0.00 29 1013.7
20260831190514 100 169 8.0 15.0 0.00 0.00 0.00 30 1013.8
20260831190031 100 186 5.0 14.0 0.00 0.00 0.00 30 1013.8
20260831185518 100 175 6.0 15.0 0.00 0.00 0.00 30 1013.9
20260831185018 100 196 7.0 16.0 0.00 0.00 0.00 31 1014.1
20260831184533 100 163 4.0 16.0 0.00 0.00 0.00 31 1014.1
20260831184008 100 173 6.0 15.0 0.00 0.00 0.00 33 1014.1
20260831183511 99 209 6.0 12.0 0.00 0.00 0.00 33 1014.1
20260831183016 99 199 8.0 13.0 0.00 0.00 0.00 32 1014.1
20260831182514 99 141 5.0 13.0 0.00 0.00 0.00 32 1014.2
20260831182013 98 207 7.0 17.0 0.00 0.00 0.00 32 1014.4
20260831181529 98 167 5.0 17.0 0.00 0.00 0.00 33 1014.4
20260831181013 97 161 7.0 18.0 0.00 0.00 0.00 34 1014.4
20260831180515 97 202 6.0 18.0 0.00 0.00 0.00 33 1014.5
20260831180031 97 208 6.0 19.0 0.00 0.00 0.00 34 1014.5
20260831175515 97 154 9.0 19.0 0.00 0.00 0.00 33 1014.4
20260831175020 96 216 9.0 16.0 0.00 0.00 0.00 35 1014.5
20260831174521 96 192 8.0 16.0 0.00 0.00 0.00 34 1014.5
20260831174010 95 360 8.0 15.0 0.00 0.00 0.00 36 1014.5
20260831173510 95 134 6.0 15.0 0.00 0.00 0.00 35 1014.4
20260831173021 94 175 6.0 15.0 0.00 0.00 0.00 37 1014.5
20260831172511 94 162 8.0 17.0 0.00 0.00 0.00 36 1014.5
20260831172015 93 153 7.0 18.0 0.00 0.00 0.00 36 1014.5
20260831171529 94 155 9.0 18.0 0.00 0.00 0.00 35 1014.5
20260831171018 94 171 8.0 16.0 0.00 0.00 0.00 35 1014.5
20260831170503 94 196 7.0 16.0 0.00 0.00 0.00 37 1014.5
20260831170007 93 165 5.0 16.0 0.00 0.00 0.00 37 1014.5
20260831165508 93 125 7.0 16.0 0.00 0.00 0.00 37 1014.5
20260831165010 92 172 7.0 16.0 0.00 0.00 0.00 38 1014.5
20260831164514 92 160 9.0 16.0 0.00 0.00 0.00 37 1014.5
20260831164010 92 141 9.0 13.0 0.00 0.00 0.00 37 1014.4
20260831163512 92 179 6.0 17.0 0.00 0.00 0.00 39 1014.4
20260831163032 91 183 7.0 16.0 0.00 0.00 0.00 38 1014.4
20260831162514 91 188 9.0 17.0 0.00 0.00 0.00 38 1014.5
20260831162015 91 174 7.0 22.0 0.00 0.00 0.00 38 1014.5
20260831161531 91 185 9.0 22.0 0.00 0.00 0.00 38 1014.5
20260831161009 91 157 6.0 19.0 0.00 0.00 0.00 39 1014.5
20260831160506 91 161 8.0 19.0 0.00 0.00 0.00 39 1014.5
20260831160011 90 162 7.0 14.0 0.00 0.00 0.00 40 1014.5
20260831155510 89 202 7.0 16.0 0.00 0.00 0.00 40 1014.5
20260831155013 88 180 10.0 17.0 0.00 0.00 0.00 40 1014.4
20260831154557 88 183 8.0 17.0 0.00 0.00 0.00 41 1014.4
20260831154012 88 150 7.0 18.0 0.00 0.00 0.00 40 1014.3
20260831153518 88 142 9.0 20.0 0.00 0.00 0.00 40 1014.4
20260831153028 88 161 6.0 20.0 0.00 0.00 0.00 41 1014.3
20260831152516 88 148 6.0 16.0 0.00 0.00 0.00 41 1014.4
20260831152016 88 143 7.0 13.0 0.00 0.00 0.00 41 1014.5
20260831151507 88 171 8.0 17.0 0.00 0.00 0.00 40 1014.6
20260831151007 88 194 9.0 17.0 0.00 0.00 0.00 40 1014.5
20260831150508 87 160 6.0 12.0 0.00 0.00 0.00 42 1014.5
20260831150016 87 169 8.0 13.0 0.00 0.00 0.00 42 1014.5
20260831145511 86 154 7.0 13.0 0.00 0.00 0.00 43 1014.7
20260831145014 85 181 7.0 13.0 0.00 0.00 0.00 44 1014.7
20260831144532 85 162 8.0 13.0 0.00 0.00 0.00 45 1014.8
20260831144015 84 195 6.0 12.0 0.00 0.00 0.00 47 1015.0
20260831143516 83 158 5.0 13.0 0.00 0.00 0.00 47 1015.0
20260831143046 83 143 6.0 13.0 0.00 0.00 0.00 47 1015.0
20260831142519 83 145 7.0 12.0 0.00 0.00 0.00 47 1015.1
20260831142016 82 171 4.0 12.0 0.00 0.00 0.00 49 1015.0
20260831141534 82 138 7.0 12.0 0.00 0.00 0.00 48 1015.1
20260831141009 82 138 6.0 10.0 0.00 0.00 0.00 49 1015.1
20260831140509 82 167 6.0 10.0 0.00 0.00 0.00 48 1014.9
20260831140034 82 140 6.0 10.0 0.00 0.00 0.00 50 1014.9
20260831135511 81 145 7.0 10.0 0.00 0.00 0.00 51 1014.9
20260831135013 81 140 4.0 8.0 0.00 0.00 0.00 53 1014.9
20260831134534 80 134 4.0 8.0 0.00 0.00 0.00 54 1014.9
20260831134014 80 150 3.0 8.0 0.00 0.00 0.00 57 1014.9
20260831133513 79 125 2.0 7.0 0.00 0.00 0.00 57 1014.9
20260831133033 79 129 3.0 6.0 0.00 0.00 0.00 57 1014.8
20260831132518 79 134 3.0 7.0 0.00 0.00 0.00 57 1014.9
20260831132008 78 109 2.0 7.0 0.00 0.00 0.00 58 1015.0
20260831131514 78 130 3.0 7.0 0.00 0.00 0.00 58 1015.1
20260831131012 78 140 3.0 5.0 0.00 0.00 0.00 58 1015.1
20260831130513 78 143 1.0 6.0 0.00 0.00 0.00 57 1015.1
20260831130026 78 144 3.0 7.0 0.00 0.00 0.00 57 1014.9
20260831125516 78 137 4.0 7.0 0.00 0.00 0.00 58 1014.9
20260831125020 78 114 1.0 3.0 0.00 0.00 0.00 62 1014.8
20260831124529 78 115 0.0 2.0 0.00 0.00 0.00 64 1014.9
20260831124022 78 50 0.0 0.0 0.00 0.00 0.00 64 1014.9
20260831123518 78 50 0.0 1.0 0.00 0.00 0.00 64 1014.9
20260831123031 78 345 0.0 2.0 0.00 0.00 0.00 64 1015.0
20260831122508 78 345 1.0 3.0 0.00 0.00 0.00 65 1015.1
20260831122011 78 333 1.0 4.0 0.00 0.00 0.00 64 1015.0
20260831121519 78 360 2.0 4.0 0.00 0.00 0.00 65 1015.0
20260831121013 77 338 2.0 3.0 0.00 0.00 0.00 64 1015.1
20260831120512 77 9 1.0 3.0 0.00 0.00 0.00 64 1015.1
20260831120032 77 323 2.0 5.0 0.00 0.00 0.00 64 1015.2
20260831115518 77 336 2.0 5.0 0.00 0.00 0.00 64 1015.1
20260831115019 77 327 2.0 4.0 0.00 0.00 0.00 64 1015.1
20260831114535 76 318 3.0 4.0 0.00 0.00 0.00 63 1015.0
20260831114016 76 18 0.0 1.0 0.00 0.00 0.00 62 1015.1
20260831113518 76 129 0.0 0.0 0.00 0.00 0.00 61 1015.1
20260831113034 76 129 0.0 0.0 0.00 0.00 0.00 61 1015.1
20260831112510 77 129 0.0 0.0 0.00 0.00 0.00 61 1015.1
20260831112011 77 129 0.0 0.0 0.00 0.00 0.00 60 1015.1
20260831111517 77 129 0.0 0.0 0.00 0.00 0.00 61 1015.0
20260831111013 77 129 0.0 0.0 0.00 0.00 0.00 60 1015.0
20260831110518 77 145 0.0 0.0 0.00 0.00 0.00 60 1015.1
20260831110033 77 145 0.0 0.0 0.00 0.00 0.00 59 1015.1
20260831105517 77 145 0.0 0.0 0.00 0.00 0.00 59 1015.1
20260831105015 78 145 0.0 0.0 0.00 0.00 0.00 58 1015.1
20260831104533 78 145 0.0 0.0 0.00 0.00 0.00 58 1015.1
20260831104016 78 145 0.0 2.0 0.00 0.00 0.00 58 1015.2
20260831103516 78 145 0.0 8.0 0.00 0.00 0.00 58 1015.2
20260831103018 78 142 0.0 11.0 0.00 0.00 0.00 58 1015.2
20260831102511 78 315 2.0 11.0 0.00 0.00 0.00 58 1015.4
20260831102011 78 311 6.0 11.0 0.00 0.00 0.00 57 1015.3
20260831101531 78 151 0.0 3.0 0.00 0.00 0.00 57 1015.0
20260831101013 78 147 2.0 3.0 0.00 0.00 0.00 57 1015.0
20260831100513 79 153 0.0 2.0 0.00 0.00 0.00 56 1015.1
20260831100030 79 273 0.0 5.0 0.00 0.00 0.00 56 1015.1
20260831095519 79 273 1.0 9.0 0.00 0.00 0.00 56 1015.2